Location: Casa Rossa
(45.2389°N, 12.2056°E)
Time: 04:36:42
(UTC+00:00)

UNK - Pass Details

Date: 14 July 2020
Orbit: 667 x 685 km, 98.1° (Epoch: 11 August)

Event Time Altitude Azimuth Distance (km) Brightness Sun altitude
Exits shadow 01:33:04 29° 223° (SW) 1,242 4.5 -16.3°
Maximum altitude 01:34:35 37° 263° (W) 1,059 4.4 -16.2°
Drops below altitude 10° 01:38:53 10° 330° (NNW) 2,125 6.6 -15.8°
Sets 01:41:18 0° 339° (NNW) 3,048 7.6 -15.5°
